Theta_e
313 312 313 314 314 316 317 317 318 317 317 316 316 316 316 313 311 308 307 309 308 310 311 312 313 322 338 345 343 343 346 343 342 340 341 340 339 338 339 339 340 337 345 343
312 314 314 314 315 316 317 318 319 318 317 317 317 317 317 313 313 311 311 311 309 310 311 311 312 329 347 347 345 345 345 344 343 344 343 342 342 341 338 340 342 341 344 345
313 314 314 314 315 316 315 316 316 316 316 316 317 319 318 317 314 313 313 311 310 311 311 312 312 322 344 346 345 344 346 346 344 344 348 348 347 346 347 347 345 343 345 346
314 313 315 316 315 315 316 315 316 317 316 318 320 322 319 318 318 315 315 312 311 311 311 312 311 312 343 345 344 344 343 344 344 342 345 349 348 348 349 349 348 346 347 345
317 316 315 316 316 321 322 320 319 318 317 315 318 324 319 318 319 317 316 315 313 311 311 310 310 311 337 344 343 342 342 341 338 333 342 350 348 348 350 350 349 348 346 346
315 314 317 318 321 320 318 318 319 320 318 323 319 320 318 317 317 317 316 314 314 313 313 313 311 313 318 338 341 341 341 340 341 340 342 351 349 349 348 346 345 345 345 343
316 318 317 319 318 316 315 317 320 324 322 324 319 320 319 317 317 316 316 315 315 314 313 314 311 310 315 342 340 339 341 341 341 346 348 351 349 349 346 344 343 341 340 339
320 317 315 316 315 315 314 315 315 322 317 319 320 324 321 316 316 316 316 315 313 313 312 313 314 312 312 342 343 342 338 338 341 344 345 348 348 347 344 343 341 339 339 337
320 318 315 315 315 315 312 314 315 320 319 321 317 316 315 314 314 316 315 315 314 313 314 313 313 308 313 337 346 345 343 337 340 341 338 345 346 346 342 340 341 339 336 335
318 319 316 315 313 313 313 314 315 321 324 324 317 316 315 317 318 317 316 315 314 313 314 310 310 309 314 336 344 343 347 341 339 345 337 339 345 340 339 339 337 335 333 333
316 316 317 316 315 313 313 314 319 320 321 320 321 317 312 315 316 315 314 316 314 312 314 313 310 310 315 334 345 344 348 348 347 347 344 340 336 339 338 337 336 333 333 331
314 316 318 317 314 312 312 315 317 322 323 322 319 320 314 312 314 313 314 314 312 313 312 314 312 311 319 333 345 345 345 345 345 344 341 340 337 337 337 335 333 333 331 327
314 314 317 314 311 313 318 317 319 321 322 322 323 320 314 315 315 315 315 314 316 313 314 317 320 318 326 339 345 344 345 344 344 342 340 337 337 334 331 329 328 329 328 322
314 313 319 318 316 312 314 314 315 317 319 318 319 320 319 318 318 317 316 315 315 314 325 332 329 327 324 342 343 341 342 343 342 340 337 335 333 330 328 327 328 324 322 321
312 315 316 316 315 315 315 316 316 316 317 319 319 320 317 316 316 311 310 312 315 317 322 329 329 332 336 332 331 330 335 341 341 337 335 331 329 327 325 323 321 321 321 320
312 316 317 317 314 315 316 316 312 313 313 314 314 314 311 312 310 310 309 308 310 315 319 326 328 334 331 328 328 329 330 336 338 334 330 327 325 323 320 317 318 318 317 318
315 315 317 315 314 315 318 313 309 309 309 309 311 309 309 309 307 307 306 306 308 310 318 324 329 330 328 326 327 327 326 329 335 329 326 323 320 318 316 314 315 313 314 315
315 317 315 317 317 319 315 309 308 308 308 307 308 310 307 305 304 304 303 303 304 306 311 326 330 325 326 324 327 327 323 322 323 323 322 320 318 315 313 313 310 309 310 312
314 315 316 318 315 314 311 308 307 307 306 307 304 304 303 303 303 305 305 304 304 305 309 324 328 327 324 324 324 325 325 323 320 319 319 317 315 313 311 308 306 306 307 307
313 312 314 314 316 316 308 306 305 305 309 304 302 302 302 303 306 311 309 305 305 306 314 326 328 326 326 325 324 324 323 321 319 318 317 315 314 311 309 306 304 302 303 302
313 311 311 312 313 312 306 305 304 307 307 301 301 300 302 303 307 308 309 306 307 312 327 328 327 325 324 323 322 321 320 320 318 317 316 314 312 310 307 304 301 300 299 298
314 314 310 311 310 314 307 305 304 302 300 299 299 300 301 305 310 314 313 318 326 327 328 326 325 323 322 321 320 318 317 317 316 315 314 312 310 308 307 303 301 299 298 297
315 313 313 309 310 308 306 302 302 300 298 298 298 303 306 315 325 327 327 325 327 327 324 322 321 320 320 318 317 316 315 315 314 313 312 311 309 307 305 301 301 300 299 298
311 310 310 308 306 305 302 301 300 299 297 300 304 305 321 325 325 326 324 324 322 323 321 320 319 317 316 316 316 315 314 314 313 312 309 308 307 306 304 303 303 303 300 296
307 307 308 307 306 302 302 300 299 297 297 302 303 308 319 324 323 323 322 322 320 318 318 317 316 316 315 314 314 314 313 310 304 303 303 303 305 306 305 305 305 302 300 300
304 303 307 306 303 300 299 299 298 296 301 302 303 308 314 319 320 319 318 318 317 316 315 315 314 314 313 313 312 308 306 305 302 299 299 300 302 302 302 302 301 301 299 293
Wind_Speed
5 2 7 13 13 17 16 18 21 20 17 10 18 21 18 9 8 9 9 10 8 10 8 15 10 11 20 33 37 33 38 40 39 37 31 27 27 28 29 27 29 30 22 20
4 7 14 14 15 16 20 21 23 24 20 18 16 24 20 6 8 8 11 13 10 6 6 6 8 14 33 33 37 34 37 44 47 36 35 38 32 30 29 28 27 31 24 21
7 11 12 13 12 13 13 12 14 19 9 9 13 30 17 16 8 9 11 9 9 13 14 6 6 14 26 29 34 37 35 46 45 36 34 31 30 30 25 28 30 27 26 22
11 7 11 14 16 13 19 11 17 20 15 12 7 21 19 9 19 17 16 13 11 14 12 6 8 6 25 32 41 45 45 46 50 46 31 33 35 23 23 29 29 28 25 23
7 16 15 10 8 4 7 14 12 7 9 8 11 8 27 11 16 16 17 15 13 13 12 10 9 12 27 32 32 39 42 42 42 44 39 31 28 28 30 32 32 30 28 25
12 16 5 6 3 3 5 6 8 4 4 10 8 13 28 12 14 17 15 12 13 12 14 15 11 21 18 34 36 38 41 41 38 40 41 30 29 31 30 33 34 33 31 26
13 6 5 4 4 2 2 3 4 3 0 9 4 12 20 8 10 13 14 17 18 14 12 15 9 9 14 29 36 39 41 42 41 40 38 29 30 36 38 37 35 34 31 28
3 9 5 2 10 8 10 8 4 5 3 7 1 7 6 10 13 17 16 13 11 11 12 15 14 13 17 25 37 35 38 38 41 41 36 33 31 32 30 34 39 33 34 29
4 8 16 20 22 4 5 3 6 6 12 9 4 7 10 15 13 11 15 8 9 10 14 16 15 10 19 25 34 39 39 39 40 36 34 33 37 33 29 32 39 37 33 31
6 14 11 11 7 10 10 5 1 2 4 5 5 7 8 5 4 6 8 5 8 9 8 8 8 10 22 26 32 38 39 41 42 35 36 33 24 31 30 38 35 36 35 33
6 7 11 9 7 6 2 2 3 3 4 4 4 5 7 8 7 8 8 9 9 9 7 8 7 8 25 27 29 38 38 35 35 34 38 33 35 43 45 43 43 38 35 33
2 4 7 10 22 11 10 10 8 5 5 5 4 14 6 9 5 6 8 8 6 8 7 7 9 4 15 20 25 31 35 35 42 43 43 35 51 48 47 44 44 44 40 34
6 4 5 7 5 5 0 1 6 9 4 10 6 9 3 5 8 9 9 9 11 7 11 9 7 2 15 22 25 30 31 31 34 44 44 43 49 35 43 40 39 43 40 36
8 2 6 7 12 9 18 19 14 11 6 14 19 29 15 13 7 9 12 14 14 11 8 10 5 7 10 18 24 27 30 36 37 39 43 41 39 40 39 42 45 42 40 37
4 5 6 13 20 21 22 23 7 6 7 8 17 19 13 13 9 8 12 13 14 14 10 6 5 1 9 15 23 23 16 20 40 39 42 42 43 43 40 41 40 42 38 36
3 5 8 14 20 16 18 8 2 5 9 13 18 23 11 9 11 13 15 13 14 17 12 3 3 10 13 21 25 28 21 11 41 41 42 46 47 43 40 39 45 43 39 39
2 4 4 8 12 20 7 7 2 10 11 14 17 18 9 16 21 21 22 15 13 16 13 6 4 9 17 25 39 34 33 18 48 52 51 49 47 44 42 42 44 41 40 38
3 3 4 8 11 4 3 4 9 14 21 15 18 8 11 20 20 26 24 20 17 16 13 6 5 11 26 33 42 44 48 24 32 43 49 47 47 45 43 45 39 38 37 38
5 2 5 4 7 15 4 4 8 15 30 4 5 19 25 23 21 29 26 21 19 16 10 6 14 25 32 32 32 38 46 42 28 34 47 43 45 46 42 40 36 39 40 38
5 8 2 4 5 5 3 10 17 14 7 6 22 25 25 20 11 14 10 17 19 15 11 13 22 34 35 35 40 39 38 45 26 35 39 39 42 42 39 39 39 35 39 38
6 4 4 6 5 6 5 17 13 5 7 24 26 24 25 16 12 22 10 13 13 13 17 23 28 29 35 42 46 40 38 42 35 39 40 38 39 39 41 40 35 37 36 38
4 5 3 4 4 6 11 13 4 11 21 23 25 24 25 23 20 7 14 13 17 18 21 26 28 28 33 39 45 40 38 39 42 43 41 39 38 37 37 38 35 34 35 34
3 2 4 3 5 17 12 13 13 16 19 20 23 26 23 12 12 16 16 13 11 23 19 35 31 30 31 37 47 38 41 42 43 44 39 38 35 34 34 36 34 30 29 29
4 2 3 4 2 7 15 13 16 20 20 23 22 23 6 12 11 17 18 10 12 21 23 37 35 28 30 35 39 49 44 42 43 41 36 35 36 34 31 29 28 27 25 27
4 2 3 6 5 13 3 15 18 23 22 25 27 18 12 20 17 17 15 13 17 22 29 36 31 31 32 38 37 42 46 41 38 38 37 37 39 38 36 32 30 29 31 30
3 4 1 4 6 4 10 15 18 16 19 23 21 19 20 18 19 23 15 14 20 23 33 34 35 34 34 38 36 36 37 40 40 35 33 35 37 35 35 34 34 27 27 29
Wind_Direction
254 157 233 245 223 241 255 262 269 268 282 280 289 284 283 272 267 260 258 267 233 259 261 263 273 172 184 177 172 185 173 177 174 168 178 185 193 197 202 210 212 205 201 199
346 257 247 247 253 246 249 258 269 271 270 264 272 278 286 259 259 252 258 265 264 250 255 259 279 170 170 178 185 186 180 177 182 180 179 188 187 194 200 210 212 202 201 193
230 254 276 272 282 286 277 281 289 285 289 269 289 277 271 273 252 253 253 251 257 253 260 235 239 176 174 178 179 188 189 184 182 188 172 176 181 180 189 205 208 205 203 189
271 280 248 270 269 278 282 292 291 290 292 287 187 281 263 267 267 249 250 249 249 251 254 236 214 198 172 186 187 187 193 190 191 192 177 178 183 161 188 196 195 192 193 177
286 312 288 264 262 355 300 310 299 304 298 295 234 267 276 223 256 250 251 250 245 247 249 236 206 224 185 185 189 193 190 192 190 192 185 191 180 174 189 183 178 173 164 158
290 291 244 274 67 92 23 357 312 241 153 259 203 218 267 258 258 251 241 237 244 239 245 249 208 230 174 188 190 193 192 198 194 195 194 196 177 169 156 154 147 149 153 147
327 319 324 68 348 302 35 7 319 296 230 255 187 241 262 270 291 263 246 238 244 243 234 244 220 206 181 180 190 193 193 198 202 199 195 193 175 171 159 150 143 144 142 145
322 325 357 323 303 281 263 184 183 271 238 294 68 246 252 222 246 265 245 239 235 245 236 238 232 217 194 181 186 189 192 196 200 195 195 191 176 162 153 150 144 144 150 152
296 270 302 293 283 251 276 162 226 251 261 256 236 274 284 256 260 282 272 224 233 258 238 226 224 193 201 186 186 188 191 197 197 193 191 189 189 166 153 144 149 152 156 150
235 291 286 304 327 263 201 190 336 186 255 247 255 243 235 283 278 305 315 281 262 271 278 224 219 179 194 189 184 189 193 195 193 193 191 183 178 169 165 152 145 150 151 147
188 213 279 301 220 224 325 201 179 210 230 262 288 245 217 214 225 260 270 266 275 287 297 311 256 196 188 185 177 185 189 187 185 177 171 180 164 161 161 152 154 154 151 150
270 260 272 259 273 278 256 262 238 238 223 221 261 264 201 193 247 299 293 302 290 280 279 290 292 223 181 172 183 181 187 178 162 160 152 150 158 174 155 153 156 154 151 152
187 229 293 318 351 18 101 155 231 239 237 239 265 264 326 345 331 336 339 346 327 325 314 284 279 205 168 174 173 173 175 171 154 151 149 147 148 150 136 138 140 147 147 151
145 247 229 255 279 287 286 282 276 266 248 268 249 275 268 285 317 325 321 319 317 309 313 299 317 295 178 168 157 165 168 166 153 153 144 143 139 134 134 138 143 143 143 145
154 241 234 247 266 276 271 272 267 277 266 266 284 272 298 291 288 299 302 304 311 311 322 306 315 330 137 105 105 104 124 159 151 145 138 135 130 131 133 132 131 138 145 145
186 273 258 276 278 271 271 223 245 277 273 266 264 270 298 322 312 306 305 305 302 301 317 239 248 168 129 109 99 85 66 157 149 143 133 129 127 131 126 123 130 140 143 141
247 298 294 287 299 305 277 149 336 285 292 276 270 273 321 318 307 296 291 285 282 287 321 211 224 140 126 109 104 95 80 52 156 140 132 129 126 120 116 119 126 135 138 136
205 273 266 291 316 277 97 125 308 289 296 282 267 275 298 290 284 282 269 261 255 260 288 196 171 125 127 117 110 108 93 85 98 112 119 119 119 116 115 121 127 129 133 133
199 263 282 298 300 271 144 25 320 324 305 311 337 315 308 298 289 275 250 237 229 237 251 208 143 127 127 124 126 117 112 99 90 102 102 116 118 114 118 119 124 124 127 125
309 300 232 294 290 277 79 325 330 314 267 324 329 299 294 301 291 281 198 189 206 218 234 149 137 119 127 124 120 117 117 113 109 106 106 111 116 117 118 121 120 125 123 119
312 306 244 273 262 272 358 341 320 330 291 312 303 293 293 289 265 276 272 179 189 200 164 127 129 125 130 126 117 110 113 115 123 116 115 116 114 119 121 121 127 123 120 118
306 313 315 298 283 298 7 343 351 296 294 296 300 297 298 293 294 144 141 153 158 154 127 135 118 121 123 120 115 114 110 120 121 118 115 114 119 123 125 125 125 124 120 114
292 219 293 225 264 296 334 316 308 307 303 305 305 309 299 267 116 124 117 108 132 134 119 114 112 113 117 121 117 111 119 120 118 115 118 120 121 123 127 131 130 125 123 117
254 153 258 316 243 314 320 332 322 322 316 315 325 328 10 86 91 106 109 89 102 113 111 114 112 109 110 113 115 117 118 119 118 118 118 123 125 129 131 130 128 128 126 122
230 4 301 260 316 317 306 335 328 324 328 338 342 344 45 84 78 92 89 104 103 96 101 102 103 105 106 109 111 115 118 121 113 115 120 123 130 133 134 135 138 134 132 130
172 218 321 289 328 283 293 318 328 328 338 338 342 352 44 70 89 92 83 89 95 95 92 94 99 101 107 112 108 107 117 120 120 116 116 123 130 131 132 131 127 125 119 122